sat.trackr.live / text

‹ back to catalog

ZHUQUE-2E DEB

NORAD 69629 · 2026-128D

DEBRIS UNKNOWN UNKNOWN

§ Identity

Operator
Country
PRC
Launch date
2026-06-09
Launch site
JSC
Launch vehicle
Mass (kg)
RCS (m²)

External: N2YO · Heavens-Above · Gunter

§ Orbital elements

Epoch: 2026-07-08T13:55:10.316928Z

Period
91.33 min
Inclination
54.5332°
Eccentricity
0.0048341
Mean motion
15.76771451 rev/d
Perigee alt
307.1 km
Apogee alt
372.1 km
Semi-major
6,717.7 km
B*
1.4488e-3
RAAN
201.8191°
Arg perigee
20.7219°
Mean anomaly
339.5766°
Rev number
455

§ Raw data

ZHUQUE-2E DEB1 69629U 26128D   26189.57998052  .00262976  00000+0  14488-2 0  99902 69629  54.5332 201.8191 0048341  20.7219 339.5766 15.76771451  4556

JSON: /api/v1/satellites/69629 · /tle

For live sub-satellite position, see the globe view (requires WebGL).

§ Visibility from observer

Set your observer location to see the next 7 days of passes ≥ 10°. The values pass through the URL so the page stays shareable.

No JS? Fill the form by hand. The geolocation button needs JavaScript.